Overview Statistics Trail Chart Weather Telemetry Raw packets
 

This is the latest recevied weather packets stored in our database for station/object KC1BRV. If no packets are shown the sender has not sent any weather packets the latest 10 day(s).

<< 27 28 29 30 31 32 33 >>
Time Temp. Humidity Pressure Rain* Wind** Luminosity Snow
1788431782 18.89° C 98% 1016.2 hPa 1.78 mm - 2 W/m² -
1788431479 18.89° C 98% 1016.1 hPa 0 mm - 1 W/m² -
1788431174 18.89° C 98% 1016 hPa 0 mm - 1 W/m² -
1788430873 18.89° C 98% 1015.8 hPa 0 mm - 1 W/m² -
1788430572 18.89° C 98% 1016 hPa 0 mm - 0 W/m² -
1788430269 18.33° C 98% 1015.9 hPa 0 mm - 0 W/m² -
1788429969 18.33° C 98% 1016.1 hPa 0 mm - 0 W/m² -
1788429668 18.33° C 98% 1016 hPa 0 mm - 0 W/m² -
1788429366 18.33° C 98% 1016.1 hPa 1.27 mm - 0 W/m² -
1788429065 18.33° C 97% 1016.2 hPa 1.27 mm - 0 W/m² -
1788428760 18.33° C 97% 1016.3 hPa 0 mm - 0 W/m² -
1788428456 18.33° C 97% 1016.4 hPa 0 mm - 0 W/m² -
1788428156 18.33° C 97% 1016.5 hPa 0 mm - 0 W/m² -
1788427851 18.33° C 97% 1016.5 hPa 0 mm - 0 W/m² -
1788427550 18.33° C 97% 1016.4 hPa 0 mm - 0 W/m² -
1788427245 18.33° C 97% 1016.4 hPa 0 mm - 0 W/m² -
1788426966 18.33° C 97% 1016.3 hPa 0 mm - 0 W/m² -
1788426638 18.33° C 97% 1016.3 hPa 0 mm - 0 W/m² -
1788426335 17.78° C 97% 1016.7 hPa 0 mm - 0 W/m² -
1788426033 17.78° C 97% 1016.6 hPa 0 mm - 0 W/m² -
1788425731 17.78° C 97% 1016.6 hPa 1.78 mm - 0 W/m² -
1788425427 17.78° C 96% 1016.6 hPa 3.56 mm - 0 W/m² -
1788425125 17.78° C 96% 1016.6 hPa 7.11 mm - 0 W/m² -
1788424820 17.78° C 96% 1016.4 hPa 11.94 mm - 0 W/m² -
1788424517 17.78° C 96% 1016.7 hPa 8.89 mm - 0 W/m² -

* Rain latest hour (hover to see other rain measurements)
** Current wind speed in m/s (hover to see current wind gust speed)